Time,TemperatureF,DewpointF,PressureIn,WindDirection,WindDirectionDegrees,WindSpeedMPH,WindSpeedGustMPH,Humidity,HourlyPrecipIn,Conditions,Clouds,dailyrainin,SoftwareType,DateUTC
2013-07-08 00:02:00,80.0,71.0,30.10,SE,135,8.0,13.0,73,-99.99,,,-99.99,,2013-07-08 04:02:00,
2013-07-08 00:12:00,80.0,71.0,30.10,SE,136,7.0,11.0,73,-99.99,,,-99.99,,2013-07-08 04:12:00,
2013-07-08 00:22:00,80.0,71.0,30.10,SE,136,7.0,11.0,73,-99.99,,,-99.99,,2013-07-08 04:22:00,
2013-07-08 00:42:00,80.0,72.0,30.10,SE,131,5.0,9.0,75,-99.99,,,-99.99,,2013-07-08 04:42:00,
2013-07-08 01:01:00,81.0,73.0,30.11,SE,134,6.0,10.0,76,-99.99,,,-99.99,,2013-07-08 05:01:00,
2013-07-08 01:22:00,81.0,73.0,30.11,SE,136,5.0,7.0,77,-99.99,,,-99.99,,2013-07-08 05:22:00,
2013-07-08 01:43:00,81.0,73.0,30.10,SE,132,6.0,10.0,77,-99.99,,,-99.99,,2013-07-08 05:43:00,
2013-07-08 02:01:00,80.0,71.0,30.10,SE,139,6.0,12.0,74,-99.99,,,-99.99,,2013-07-08 06:01:00,
2013-07-08 02:12:00,80.0,71.0,30.10,SE,136,6.0,9.0,74,-99.99,,,-99.99,,2013-07-08 06:12:00,
2013-07-08 02:22:00,80.0,71.0,30.10,SE,136,6.0,9.0,74,-99.99,,,-99.99,,2013-07-08 06:22:00,
2013-07-08 02:43:00,80.0,72.0,30.10,SE,138,5.0,7.0,76,-99.99,,,-99.99,,2013-07-08 06:43:00,
2013-07-08 02:53:00,80.0,72.0,30.10,SE,133,5.0,9.0,77,-99.99,,,-99.99,,2013-07-08 06:53:00,
2013-07-08 03:12:00,80.0,72.0,30.10,SE,129,4.0,6.0,77,-99.99,,,-99.99,,2013-07-08 07:12:00,
2013-07-08 03:22:00,80.0,72.0,30.10,SE,129,4.0,6.0,77,-99.99,,,-99.99,,2013-07-08 07:22:00,
2013-07-08 03:44:00,80.0,73.0,30.10,SE,130,4.0,7.0,78,-99.99,,,-99.99,,2013-07-08 07:44:00,
2013-07-08 03:53:00,80.0,72.0,30.09,SE,126,5.0,8.0,77,-99.99,,,-99.99,,2013-07-08 07:53:00,
2013-07-08 04:12:00,80.0,72.0,30.10,SE,125,4.0,8.0,77,-99.99,,,-99.99,,2013-07-08 08:12:00,
2013-07-08 04:22:00,80.0,72.0,30.10,SE,125,4.0,8.0,77,-99.99,,,-99.99,,2013-07-08 08:22:00,
2013-07-08 04:42:00,80.0,71.0,30.09,SE,133,7.0,10.0,75,-99.99,,,-99.99,,2013-07-08 08:42:00,
2013-07-08 04:53:00,80.0,72.0,30.08,SE,132,6.0,11.0,76,-99.99,,,-99.99,,2013-07-08 08:53:00,
2013-07-08 05:11:00,80.0,71.0,30.08,SE,133,7.0,10.0,76,-99.99,,,-99.99,,2013-07-08 09:11:00,
2013-07-08 05:22:00,80.0,71.0,30.08,SE,133,7.0,10.0,76,-99.99,,,-99.99,,2013-07-08 09:22:00,
2013-07-08 05:43:00,79.0,71.0,30.08,SE,128,6.0,11.0,76,-99.99,,,-99.99,,2013-07-08 09:43:00,
2013-07-08 05:53:00,79.0,71.0,30.08,SE,127,6.0,11.0,75,-99.99,,,-99.99,,2013-07-08 09:53:00,
2013-07-08 06:11:00,80.0,71.0,30.08,SE,131,6.0,10.0,75,-99.99,,,-99.99,,2013-07-08 10:11:00,
2013-07-08 06:22:00,80.0,71.0,30.08,SE,131,6.0,10.0,75,-99.99,,,-99.99,,2013-07-08 10:22:00,
2013-07-08 06:43:00,80.0,71.0,30.08,SE,131,6.0,11.0,73,-99.99,,,-99.99,,2013-07-08 10:43:00,
2013-07-08 06:53:00,80.0,70.0,30.08,SE,132,6.0,9.0,73,-99.99,,,-99.99,,2013-07-08 10:53:00,
2013-07-08 07:11:00,80.0,71.0,30.08,SE,130,6.0,10.0,73,-99.99,,,-99.99,,2013-07-08 11:11:00,
2013-07-08 07:23:00,80.0,71.0,30.08,SE,130,6.0,10.0,73,-99.99,,,-99.99,,2013-07-08 11:23:00,
2013-07-08 07:43:00,80.0,71.0,30.09,SE,130,6.0,11.0,72,-99.99,,,-99.99,,2013-07-08 11:43:00,
2013-07-08 07:53:00,80.0,71.0,30.09,SE,131,7.0,11.0,71,-99.99,,,-99.99,,2013-07-08 11:53:00,
2013-07-08 08:11:00,81.0,71.0,30.09,SE,128,7.0,11.0,72,-99.99,,,-99.99,,2013-07-08 12:11:00,
2013-07-08 08:22:00,81.0,71.0,30.09,SE,128,7.0,11.0,72,-99.99,,,-99.99,,2013-07-08 12:22:00,
2013-07-08 08:43:00,80.0,71.0,30.09,SE,134,8.0,14.0,73,-99.99,,,-99.99,,2013-07-08 12:43:00,
2013-07-08 09:11:00,82.0,70.0,30.11,SE,128,8.0,16.0,68,-99.99,,,-99.99,,2013-07-08 13:11:00,
2013-07-08 09:22:00,82.0,70.0,30.11,SE,128,8.0,16.0,68,-99.99,,,-99.99,,2013-07-08 13:22:00,
2013-07-08 09:33:00,82.0,70.0,30.11,SE,128,8.0,16.0,68,-99.99,,,-99.99,,2013-07-08 13:33:00,
2013-07-08 10:02:00,82.0,71.0,30.12,ESE,118,7.0,14.0,70,-99.99,,,-99.99,,2013-07-08 14:02:00,
2013-07-08 10:23:00,82.0,72.0,30.12,ESE,117,7.0,13.0,71,-99.99,,,-99.99,,2013-07-08 14:23:00,
2013-07-08 10:34:00,82.0,72.0,30.12,ESE,117,7.0,13.0,71,-99.99,,,-99.99,,2013-07-08 14:34:00,
2013-07-08 11:02:00,83.0,72.0,30.13,ESE,109,7.0,14.0,69,-99.99,,,-99.99,,2013-07-08 15:02:00,
2013-07-08 11:22:00,83.0,72.0,30.13,East,99,6.0,11.0,69,-99.99,,,-99.99,,2013-07-08 15:22:00,
2013-07-08 11:33:00,83.0,72.0,30.13,East,99,6.0,11.0,69,-99.99,,,-99.99,,2013-07-08 15:33:00,
2013-07-08 12:01:00,83.0,72.0,30.15,ESE,106,7.0,12.0,69,-99.99,,,-99.99,,2013-07-08 16:01:00,
2013-07-08 12:22:00,82.0,71.0,30.15,ESE,107,9.0,15.0,68,-99.99,,,-99.99,,2013-07-08 16:22:00,
2013-07-08 12:33:00,82.0,71.0,30.15,ESE,107,9.0,15.0,68,-99.99,,,-99.99,,2013-07-08 16:33:00,
2013-07-08 12:43:00,83.0,72.0,30.15,ESE,109,8.0,14.0,68,-99.99,,,-99.99,,2013-07-08 16:43:00,
2013-07-08 12:45:00,83.0,72.0,30.15,ESE,118,8.0,14.0,68,-99.99,,,-99.99,,2013-07-08 16:45:00,
2013-07-08 13:07:00,83.0,71.0,30.15,SE,126,10.0,17.0,67,-99.99,,,-99.99,,2013-07-08 17:07:00,
2013-07-08 13:28:00,83.0,72.0,30.15,ESE,118,8.0,14.0,68,-99.99,,,-99.99,,2013-07-08 17:28:00,
2013-07-08 13:37:00,83.0,72.0,30.15,ESE,118,8.0,14.0,68,-99.99,,,-99.99,,2013-07-08 17:37:00,
2013-07-08 13:55:00,83.0,71.0,30.14,SE,130,10.0,16.0,67,-99.99,,,-99.99,,2013-07-08 17:55:00,
2013-07-08 14:11:00,83.0,71.0,30.14,ESE,123,11.0,18.0,66,-99.99,,,-99.99,,2013-07-08 18:11:00,
2013-07-08 14:25:00,83.0,71.0,30.14,ESE,123,11.0,18.0,66,-99.99,,,-99.99,,2013-07-08 18:25:00,
2013-07-08 14:56:00,83.0,70.0,30.13,East,101,8.0,14.0,65,-99.99,,,-99.99,,2013-07-08 18:56:00,
2013-07-08 15:13:00,84.0,71.0,30.13,ESE,110,7.0,12.0,65,-99.99,,,-99.99,,2013-07-08 19:13:00,
2013-07-08 15:20:00,84.0,71.0,30.13,ESE,110,7.0,12.0,65,-99.99,,,-99.99,,2013-07-08 19:20:00,
2013-07-08 15:39:00,84.0,73.0,30.12,ESE,107,7.0,14.0,68,-99.99,,,-99.99,,2013-07-08 19:39:00,
2013-07-08 16:07:00,84.0,71.0,30.11,ESE,104,8.0,14.0,65,-99.99,,,-99.99,,2013-07-08 20:07:00,
2013-07-08 16:15:00,84.0,71.0,30.11,ESE,104,8.0,14.0,65,-99.99,,,-99.99,,2013-07-08 20:15:00,
2013-07-08 16:52:00,84.0,71.0,30.11,East,88,7.0,13.0,64,-99.99,,,-99.99,,2013-07-08 20:52:00,
2013-07-08 17:22:00,84.0,71.0,30.10,East,80,6.0,12.0,66,-99.99,,,-99.99,,2013-07-08 21:22:00,
2013-07-08 17:34:00,83.0,71.0,30.09,ENE,75,7.0,12.0,65,-99.99,,,-99.99,,2013-07-08 21:34:00,
2013-07-08 18:17:00,83.0,70.0,30.09,ENE,68,6.0,12.0,65,-99.99,,,-99.99,,2013-07-08 22:17:00,
2013-07-08 18:24:00,83.0,70.0,30.08,ENE,69,7.0,13.0,65,-99.99,,,-99.99,,2013-07-08 22:24:00,
2013-07-08 18:45:00,82.0,71.0,30.08,East,95,7.0,12.0,68,-99.99,,,-99.99,,2013-07-08 22:45:00,
2013-07-08 19:17:00,83.0,71.0,30.08,East,83,6.0,15.0,67,-99.99,,,-99.99,,2013-07-08 23:17:00,
2013-07-08 19:32:00,82.0,71.0,30.08,East,95,7.0,12.0,68,-99.99,,,-99.99,,2013-07-08 23:32:00,
2013-07-08 20:10:00,82.0,71.0,30.09,East,94,6.0,12.0,67,-99.99,,,-99.99,,2013-07-09 00:10:00,
2013-07-08 20:54:00,81.0,71.0,30.09,East,96,6.0,12.0,70,-99.99,,,-99.99,,2013-07-09 00:54:00,
2013-07-08 21:15:00,81.0,71.0,30.09,East,100,8.0,15.0,73,-99.99,,,-99.99,,2013-07-09 01:15:00,
2013-07-08 21:22:00,81.0,71.0,30.09,East,100,8.0,15.0,73,-99.99,,,-99.99,,2013-07-09 01:22:00,
2013-07-08 23:11:00,81.0,71.0,30.12,ESE,111,4.0,9.0,72,-99.99,,,-99.99,,2013-07-09 03:11:00,
2013-07-08 23:34:00,81.0,71.0,30.13,East,100,4.0,9.0,71,-99.99,,,-99.99,,2013-07-09 03:34:00,
2013-07-08 23:44:00,81.0,71.0,30.13,East,100,4.0,9.0,71,-99.99,,,-99.99,,2013-07-09 03:44:00,
2013-07-08 23:54:00,80.0,71.0,30.13,ESE,102,4.0,9.0,73,-99.99,,,-99.99,,2013-07-09 03:54:00,